Location: Lanoux
(43.1180°N, 1.4255°E)
Time: 01:27:37
(UTC+00:00)

Helios 1A Rocket - Pass Details

Date: 13 December 2025
Orbit: 433 x 442 km, 98.3° (Epoch: 17 January)

Event Time Altitude Azimuth Distance (km) Brightness Sun altitude
Exits shadow 17:54:24 18° 135° (SE) 1,201 4.3 -16.6°
Drops below altitude 10° 17:55:41 10° 152° (SSE) 1,589 5.1 -16.8°
Sets 17:57:59 0° 167° (SSE) 2,457 6.2 -17.2°
